Regional Weather Roundup
Issued by NWS State College, PA

Home | Current Version | Previous Version | Text Only | Print | Product List | Glossary Off
Versions: 1 2 3 4 5 6 7 8 9 10 11 12 13 14 15 16 17 18 19 20 21 22 23 24 25 26 27 28 29 30 31 32 33 34 35 36 37 38 39 40 41 42 43 44 45 46 47 48 49 50

000
ASUS41 KCTP 230310
RWRCTP

REGIONAL WEATHER ROUNDUP
NATIONAL WEATHER SERVICE STATE COLLEGE PA
1000 PM EST THU FEB 22 2018

Note: "fair" indicates few or no clouds below 12,000 feet with no
significant weather and/or obstructions to visibility.

* = STATION THAT DOES NOT REPORT PRECIPITATION /E.G. RAIN...SNOW...ETC/
    THUNDER OR FOG.

PAZ002>004-007>009-013>016-020>023-029>032-230400-
WESTERN PENNSYLVANIA

CITY           SKY/WX    TMP DP  RH WIND       PRES   REMARKS
ERIE           CLOUDY    35  32  88 E8        30.52F FOG
MEADVILLE      CLOUDY    39  36  89 E8        30.48S
FRANKLIN*      CLOUDY    38  35  89 E7        30.49S
NEW CASTLE     CLOUDY    41  38  89 E7        30.48S
BEAVER COUNTY  NOT AVBL
BUTLER*        NOT AVBL
PITTSBURGH INT CLOUDY    41  39  93 E6        30.45F
PITTSBURGH     CLOUDY    39  37  92 E7        30.44F
INDIANA*       CLOUDY    39  37  93 SE9       30.52S
LATROBE        CLOUDY    41  37  87 SE14      30.48S
WASHINGTON CO* CLOUDY    41  40  96 E5        30.47S
$$

PAZ004>006-010>012-017>019-024>028-033>037-041-042-045-046-049>053-230400-
CENTRAL PENNSYLVANIA

CITY           SKY/WX    TMP DP  RH WIND       PRES   REMARKS
BRADFORD       CLOUDY    34  33  96 SE10      30.52R
DUBOIS         CLOUDY    36  34  92 E10       30.49S FOG
CLEARFIELD     CLOUDY    37  36  96 E9        30.54R FOG
JOHNSTOWN      CLOUDY    35  33  92 SE7       30.48R
ALTOONA        CLOUDY    37  36  96 E5        30.55R
STATE COLLEGE  CLOUDY    37  36  93 CALM      30.57R FOG
WILLIAMSPORT   CLOUDY    38  37  97 SE3       30.61S
SELINSGROVE    CLOUDY    39  35  86 SE6       30.63R
FT INDIANTOWN  CLOUDY    37  37 100 E7        30.63R FOG
CAPITAL CITY   CLOUDY    40  38  93 E7        30.63R FOG
HARRISBURG     DRIZZLE   39  36  89 E8        30.62R FOG
YORK           CLOUDY    40  38  93 NE6       30.60S
$$

PAZ038>040-043-044-047-048-054-055-060>062-067>071-230400-
EASTERN PENNSYLVANIA

CITY           SKY/WX    TMP DP  RH WIND       PRES   REMARKS
SCRANTON       CLOUDY    37  33  85 CALM      30.61R
MOUNT POCONO   CLOUDY    30  30 100 VRB6      30.57R
ALLENTOWN      CLOUDY    37  33  85 NE8       30.63S
QUAKERTOWN*    CLOUDY    37  36  93 NE3       30.63S
READING        CLOUDY    38  37  97 E6        30.62S
LANCASTER      CLOUDY    39  38  96 E7        30.62R FOG
COATESVILLE    CLOUDY    37  37 100 CALM      30.61S FOG
POTTSTOWN      CLOUDY    36  36 100 NE5       30.65S FOG
BLUE BELL      CLOUDY    36  36 100 NE6       30.65R
DOYLESTOWN     CLOUDY    37  35  92 NE5       30.62S
WILLOW GROVE   NOT AVBL
NORTH PHILA    CLOUDY    40  37  89 NE10      30.65R FOG
PHILADELPHIA   CLOUDY    39  37  92 NE13      30.63R
$$




USA.gov is the U.S. government's official web portal to all federal, state and local government web resources and services.